This is the latest recevied weather packets stored in our database for station/object KC3SOZ. If no packets are shown the sender has not sent any weather packets the latest 10 day(s).
| Time | Temp. | Humidity | Pressure | Rain* | Wind** | Luminosity | Snow |
|---|---|---|---|---|---|---|---|
| 1778331459 | 11.67° C | 91% | 1012.3 hPa | 0 mm | - | 113 W/m² | - |
| 1778331156 | 11.67° C | 91% | 1012.3 hPa | 0 mm | - | 110 W/m² | - |
| 1778330853 | 11.67° C | 90% | 1012.2 hPa | 0 mm | - | 108 W/m² | - |
| 1778330549 | 11.67° C | 92% | 1012.1 hPa | 0 mm | - | 107 W/m² | - |
| 1778330248 | 11.67° C | 90% | 1012 hPa | 0 mm | - | 85 W/m² | - |
| 1778329944 | 11.67° C | 88% | 1012.1 hPa | 0 mm | - | 75 W/m² | - |
| 1778329640 | 11.67° C | 88% | 1011.9 hPa | 0 mm | - | 66 W/m² | - |
| 1778329337 | 11.67° C | 89% | 1011.9 hPa | 0 mm | - | 83 W/m² | - |
| 1778329033 | 11.67° C | 89% | 1011.5 hPa | 0 mm | - | 81 W/m² | - |
| 1778328731 | 11.67° C | 90% | 1011.8 hPa | 0 mm | - | 95 W/m² | - |
| 1778328429 | 11.11° C | 91% | 1011.9 hPa | 0 mm | - | 91 W/m² | - |
| 1778328127 | 11.11° C | 90% | 1011.7 hPa | 0 mm | - | 78 W/m² | - |
| 1778327824 | 11.11° C | 90% | 1011.9 hPa | 0 mm | - | 51 W/m² | - |
| 1778327521 | 11.11° C | 90% | 1011.6 hPa | 0 mm | - | 69 W/m² | - |
| 1778327220 | 11.11° C | 89% | 1011.7 hPa | 0 mm | - | 75 W/m² | - |
| 1778326918 | 10.56° C | 92% | 1011.6 hPa | 0 mm | - | 68 W/m² | - |
| 1778326616 | 10.56° C | 93% | 1011.4 hPa | 0 mm | - | 57 W/m² | - |
| 1778326313 | 10.56° C | 91% | 1011.8 hPa | 0 mm | - | 48 W/m² | - |
| 1778326010 | 10° C | 95% | 1011.7 hPa | 0 mm | - | 47 W/m² | - |
| 1778325707 | 10° C | 97% | 1011.4 hPa | 0 mm | - | 34 W/m² | - |
| 1778325404 | 10° C | 98% | 1011.6 hPa | 0 mm | - | 34 W/m² | - |
| 1778325101 | 9.44° C | 98% | 1011.8 hPa | 0 mm | - | 38 W/m² | - |
| 1778324798 | 10° C | 98% | 1011.9 hPa | 0 mm | - | 41 W/m² | - |
| 1778324495 | 9.44° C | 98% | 1011.8 hPa | 0 mm | - | 40 W/m² | - |
| 1778324193 | 9.44° C | 98% | 1011.7 hPa | 0 mm | - | 33 W/m² | - |
* Rain latest hour (hover to see other rain measurements)
** Current wind speed in m/s (hover to see current wind gust speed)